Content
SEND FEEDBACK

Daily
Averages
Monthly
Summary
United States of America

STANLEY, KENTUCKY


Home > North America > United States > Kentucky
Elevation: 400 feet     Latitude: 37 46N     Longitude: 087 09W

WEATHER
 
SELECT A DAY
Number of Records: 149,969;   Date Range: 1/1/95 - 8/12/14
 
SHARE

PRINT THIS DATA

[ ← Previous Day ]
WEATHER ALMANAC - FEBRUARY 13, 2013
[ Next Day → ]
[ °C ]   °F
Weather ElementAverageHighLow
Temperature37.8 °F43.9 °F (3:56 pm)33.8 °F (9:17 am)
Dewpoint33.5 °F35.6 °F (2:44 pm)31.1 °F (5:56 am)
Humidity85.1 %100 % (9:17 am)68 % (1:56 am)
Barometer29.90 in29.96 in (9:56 pm)29.82 in (3:56 am)
Wind Speed7.5 mph9.2 mph (7:56 am)
Weather ElementAverage
Visibility7.3 mi
Wind DirectionSW (220.3 °)

Weather ElementTotal
Precipitation0.09 in
Heating Degree Days26.2 (Base 65)
Averaged from 30 records on February 13, 2013
WEATHER CONDITIONS BREAKOUT
WIND DIRECTION BREAKOUT
WEATHER BY HOUR - FEBRUARY 13, 2013
[ °C ]   °F
Local TimeTemperatureDewpointHumidityBarometerVisibilityWind DirectionWind SpeedGust SpeedPrecipitationEventsConditions
1:56 AM41.9 °F32.0 °F68 %29.85 in10.0 miNNE (30°)8.1 mphPartly Cloudy
2:56 AM41.0 °F32.0 °F70 %29.84 in10.0 miNNE (30°)5.8 mphMostly Cloudy
3:56 AM41.0 °F32.0 °F70 %29.82 in10.0 miNNE (30°)3.5 mphScattered Clouds
4:56 AM39.9 °F32.0 °F73 %29.84 in10.0 miNNW (330°)8.1 mphMostly Cloudy
5:56 AM39.9 °F31.1 °F71 %29.84 in10.0 miNorth (360°)8.1 mphOvercast
6:56 AM38.8 °F32.0 °F76 %29.85 in10.0 miNorth (10°)6.9 mphMostly Cloudy
7:56 AM36.9 °F32.0 °F83 %29.88 in3.0 miNorth (350°)9.2 mph0.00 inSnowLight Snow
8:09 AM35.6 °F33.8 °F93 %29.88 in2.5 miNNW (340°)8.1 mph0.00 inSnowLight Snow
8:24 AM35.6 °F33.8 °F93 %29.88 in1.8 miNorth (350°)6.9 mph0.00 inSnowLight Snow
8:56 AM34.0 °F32.9 °F96 %29.89 in0.8 miNorth (10°)5.8 mph0.01 inSnowLight Snow
9:17 AM33.8 °F33.8 °F100 %29.89 in0.5 miNorth (10°)4.6 mph0.01 inFog-SnowLight Snow
9:42 AM33.8 °F33.8 °F100 %29.90 in0.8 miNorth (360°)5.8 mph0.03 inSnowLight Snow
9:56 AM34.0 °F32.9 °F96 %29.91 in1.2 miNorth (350°)6.9 mph0.03 inSnowLight Snow
10:56 AM36.0 °F34.0 °F93 %29.92 in2.0 miNNW (340°)8.1 mph0.01 inSnowLight Snow
11:17 AM35.6 °F33.8 °F93 %29.91 in5.0 miNNW (330°)9.2 mph0.00 inSnowLight Snow
11:56 AM36.9 °F34.9 °F93 %29.91 in5.0 miWNW (300°)6.9 mph0.00 inRainLight Rain
12:21 PM37.4 °F33.8 °F87 %29.90 in7.0 miNW (320°)8.1 mph0.00 inOvercast
12:56 PM38.8 °F34.0 °F83 %29.89 in10.0 miWSW (240°)5.8 mph0.00 inOvercast
1:56 PM39.9 °F34.9 °F82 %29.89 in10.0 miWest (260°)6.9 mphOvercast
2:44 PM42.8 °F35.6 °F76 %29.88 in10.0 miWest (260°)6.9 mphMostly Cloudy
2:56 PM43.0 °F34.9 °F73 %29.90 in10.0 miWest (280°)9.2 mphMostly Cloudy
3:56 PM43.9 °F34.9 °F71 %29.90 in10.0 miSW (230°)9.2 mphMostly Cloudy
4:56 PM41.9 °F34.9 °F76 %29.90 in10.0 miSSW (200°)6.9 mphPartly Cloudy
5:56 PM37.9 °F34.9 °F89 %29.91 in10.0 miSouth (180°)8.1 mphPartly Cloudy
6:56 PM36.9 °F34.0 °F89 %29.93 in10.0 miSouth (180°)8.1 mphPartly Cloudy
7:56 PM36.0 °F34.0 °F93 %29.94 in10.0 miSouth (180°)8.1 mphClear
8:56 PM34.9 °F32.9 °F92 %29.95 in10.0 miSouth (190°)8.1 mphClear
9:56 PM36.0 °F32.9 °F89 %29.96 in10.0 miSSW (200°)8.1 mphClear
10:56 PM34.9 °F32.9 °F92 %29.96 in10.0 miSouth (180°)9.2 mphClear
11:56 PM34.9 °F32.9 °F92 %29.96 in9.0 miSouth (180°)9.2 mphClear
Hourly data recorded from KOWB, located miles away from Stanley, Kentucky







STORIES FROM OUR PARTNERS